Flag for U.S.A. Weather past 2 weeks in Clearwater, Florida, U.S.A.

Now
78 °F

Clear.


Feels Like: 80 °F
Forecast: 76 / 90 °F
Wind: 12 mph from Southeast

Location: St. Petersburg / Clearwater International Airport

Current Time: May 23, 2015 at 11:50:27 PM

Latest Report: May 23, 2015 at 10:53 PM


Visibility: 10 mi

Pressure: 30.18 "Hg

Humidity: 76%

Dew point: 70 °F

Location of ClearwaterLocation

Historic Weather in Clearwater — Graph

°F

Clearwater temperature yesterday

Maximum temperature yesterday: 91 °F (at 2:53 PM)
Minimum temperature yesterday: 76 °F (at 11:53 PM)
Average temperature yesterday: 83 °F

Past Weeks' High & Low Weather Summary

 TemperatureHumidityPressure
High93 °F (May 23, 3:53 PM)100% (May 10, 7:02 AM)30.22 "Hg (May 10, 7:02 AM)
Low67 °F (May 9, 6:53 AM)41% (May 10, 4:53 PM)29.95 "Hg (May 20, 6:53 PM)
Average80 °F75%30.10 "Hg
* Reported May 8 9:53 PM — May 23 9:53 PM, Clearwater, Weather by CustomWeather, © 2015

Note: Actual official high and low records may vary slightly from our data, if they occured in-between our weather recording intervals... More about our weather records

Advertising

Clearwater weather history for previous 24 hours

 ConditionsComfort  
Time TempWeatherWind HumidityBarometerVisibility
9:53 PM
Sat, May 23
78 °FClear.9 mph79%30.17 "Hg10 mi
8:53 PM79 °FOvercast.5 mph84%30.16 "Hg10 mi
7:53 PM77 °FBroken clouds.3 mph90%30.13 "Hg10 mi
7:04 PM77 °FThunderstorms. Mostly cloudy.5 mph88%30.17 "Hg10 mi
6:53 PM77 °FThundershowers. More clouds than sun.7 mph88%30.16 "Hg10 mi
5:53 PM75 °FThundershowers. Partly sunny.6 mph96%30.17 "Hg10 mi
5:04 PM74 °FStrong thunderstorms. Fog.8 mph94%30.18 "Hg0 mi
4:53 PM74 °FStrong thunderstorms. Fog.23 mph88%30.17 "Hg1 mi
3:53 PM93 °FThundershowers. Passing clouds.6 mph47%30.15 "Hg10 mi
2:53 PM92 °FSunny.8 mph47%30.17 "Hg10 mi
1:53 PM91 °FSunny.10 mph49%30.19 "Hg10 mi
12:53 PM89 °FSunny.7 mph53%30.21 "Hg10 mi
11:53 AM87 °FSunny.7 mph55%30.22 "Hg10 mi
10:53 AM84 °FSunny.8 mph61%30.22 "Hg10 mi
9:53 AM81 °FSunny.10 mph65%30.22 "Hg10 mi
8:53 AM78 °FSunny.12 mph76%30.21 "Hg10 mi
7:53 AM76 °FSunny.12 mph82%30.19 "Hg10 mi
6:53 AM75 °FPassing clouds.10 mph82%30.17 "Hg10 mi
5:53 AM75 °FClear.9 mph88%30.15 "Hg10 mi
4:53 AM75 °FClear.9 mph85%30.14 "Hg10 mi
3:53 AM75 °FClear.7 mph85%30.13 "Hg10 mi
2:53 AM75 °FClear.7 mph88%30.12 "Hg10 mi
1:53 AM75 °FClear.6 mph88%30.14 "Hg10 mi
12:53 AM77 °FClear.7 mph77%30.14 "Hg10 mi
11:53 PM
Fri, May 22
76 °FClear.3 mph80%30.16 "Hg10 mi
Weather by CustomWeather, © 2015

See weather overviewHow to use our weather pages